Location: Macksville High School
(37.9611°N, 99.9654°W)
Time: 08:54:23
(UTC+00:00)

Cosmos 2228 Rocket - Pass Details

Date: 27 February 2020
Orbit: 618 x 652 km, 82.5° (Epoch: 08 April)

Event Time Altitude Azimuth Distance (km) Brightness Sun altitude
Rises 12:05:22 0° 173° (S) 2,882 6.6 -14.5°
Reaches altitude 10° 12:07:37 10° 167° (SSE) 1,984 5.8 -14.0°
Maximum altitude 12:11:52 49° 93° (E) 806 4.1 -13.2°
Drops below altitude 10° 12:16:10 10° 19° (NNE) 2,016 5.9 -12.3°
Sets 12:18:28 0° 14° (NNE) 2,934 6.7 -11.9°
